GAOFEN-12 03

Last updated on Sat Nov 01 2025 00:02:30 GMT+0000 (Coordinated Universal Time)

1 52912U 22069A 25304.70756571 .00002270 00000+0 30942-3 0 9991 2 52912 97.8500 193.0236 0001590 79.9678 280.1713 14.79646943180829
UTC large
Height (km)
Speed (km/s)
/
Latitude / Longitude
Inclination (degrees)
Orbital Period (minutes)
Azimuth
Elevation
Range (km)
Doppler Factor

Next 0 passes for location: London (51.5072 / 0.1276)

Sorry there are no passes over London.